Location: *
(43.4667°N, 11.6833°E)
Time: 04:37:35
(UTC+00:00)

SL-16 R/B - Pass Details

Date: 19 July 2019
Orbit: 843 x 846 km, 71.0° (Epoch: 20 August)

Event Time Altitude Azimuth Distance (km) Brightness Sun altitude
Rises 19:35:05 0° 200° (SSW) 3,386 5.1 -7.7°
Reaches altitude 10° 19:37:31 10° 200° (SSW) 2,455 4.4 -8.0°
Maximum altitude 19:43:09 83° 114° (ESE) 856 2.2 -8.8°
Drops below altitude 10° 19:48:51 10° 27° (NNE) 2,474 4.8 -9.6°
Sets 19:51:18 0° 26° (NNE) 3,413 5.6 -10.0°
